Погода в Казыме

Погода в Казыме : погода сейчас, прогноз погоды и архив. Всё, что Вы хотите узнать о погоде в Казыме!

Хотите узнать прогноз погоды в Казыме? Тогда Вам сюда: Погода в Казыме

Поиск расширенной информации на нашем сайте:

Полезная информация: Отопления частного дома - Экономная установка котлов отопления любых видов под ключ

Другие новости

Новости СМИ2

Главная страница сайта

Новости сайта

03.07.2017

Напоминаем, что на нашем специализированном сайте Метеоцентр.Азия вы можете получить высокодетализированные автоматические прогнозы погоды по пунктам России, СНГ и мира в авиационном формате (включающие направление и скорость ветра, видимость, явления погоды, количество и форму облачности, нижнюю и верхнюю границу облачности).

Рекомендуем: Александрия витязево официальный сайт: популярные сайты aleksandriya.net.

Погода в Казыме - сегодня

Время (UTC), дата Ветер
(°,м/с) 
Видим.   Явления Облачность Т
(°С)
Тd
(°С)
f(%) Тe
(°С)
Pmin
(гПа)
dP
(гПа)
Po
(мм)
O2
(г/м3)
Тmin Tmax R s Состояние
почвы
03 18.08.17 280 (З) 10 км    10/0 верхняя 
[Cs]
+10.1 +6.1 76 +11  1025.4  0.1  761  295  +3        влажная 
06 18.08.17 280 (З) 10 км    8/0 верхняя 
[Ci sp]
+14.6 +4 49 +15  1024.4  -0.8  761  290           
09 18.08.17 280 (З) 10 км    9/0 верхняя 
[Ci fib]
+17 +3 39 +17  1022.3  -2  759  287           
12 18.08.17 240 (ЮЗ) 10 км    9/0 
+18 +3.6 38 +18  1020.1  -2.1  757  286           
15 18.08.17 210 (ЮЗ) 10 км    8/4 600 м верхняя 
[Sc|Cc]
+15 +5.8 54 +16  1018.8  -1.4  756  288    +18.3       
18 18.08.17 220 (ЮЗ) 10 км    10/10 600 м 
[Sc]
+13.9 +7.2 64 +14  1017.4  -1.4  755  288           
21 18.08.17 230 (ЮЗ) 10 км    10/10 600 м 
[Sc]
+13.7 +8.7 72 +14  1015.7  -1.7  754  288           
00 19.08.17 230 (ЮЗ) 10 км    9/9 600 м 
[Sc]
+11.6 +8.4 81 +12  1014.8  -1  753  290           
03 19.08.17 010 (С) 28  0300 м    1/0 2000 м 
+9.1   1015.2  0.4  754    +10.9        влажная 
06 19.08.17 310 (СЗ) 10 км    8/0 верхняя 
[Ci]
+17 +8.8 58 +17  1015.1  -0.1  754  284           
09 19.08.17 300 (СЗ) 4{11}  10 км    9/9 600 м 
[Sc diur, vesp]
+19 +6.9 45 +19  1015.4  0.3  754  283           
12 19.08.17 340 (С) 10 км    10/9 600 м верхняя 
[Cu med, cong|Cs]
+16.9 +7.5 54 +17  1016.6  1.2  755  285           
15 19.08.17 тихо ()   10 км    3/0 верхняя 
[Cs]
+12.6 +7.7 72 +13  1018  1.2  756  290    +19.3       
18 19.08.17 030 (СВ) 10 км    3/0 верхняя 
[Ci sp]
+8.3 +6.7 90 +9  1019.3  1.1  757  295           
21 19.08.17 090 (В) 10 км    ясно 
+5.5 +4.6 94 +6  1019.9  1.1  757  298           
00 20.08.17 120 (ЮВ) 4000 м  слаб. морось  10/10 300 м 
[St]
+6.5 +5.8 95 +7  1020.3  0.4  757  297           
03 20.08.17 140 (ЮВ) 10 км  {морось}  10/0 верхняя 
[Cs]
+9.3 +6.2 81 +9  1019.9  -0.3  757  294  +3.4    0.0    влажная 
06 20.08.17 160 (Ю) 10 км  {морось}  6/0 верхняя 
[Ci sp]
+15 +7.5 61 +16  1018.5  -1.2  756  288           
09 20.08.17 200 (Ю) 10 км    10/8 600 м верхняя 
[Sc|Ci sp]
+18 +9.1 56 +19  1017.3  -1.1  755  284           
12 20.08.17 220 (ЮЗ) 10 км    10/10 600 м 
[Sc]
+17.6 +10.1 61 +19  1016.5  -0.7  755  284           
15 20.08.17 190 (Ю) 10 км  {ливн. осадки}  10/10 600 м кучево-дожд. 
[Cb cap]
+14.8 +12.3 85 +20  1016.3  -0.4  755  286    +18.1       
18 20.08.17 200 (Ю) 10 км  {ливн. осадки}  3/0 верхняя 
[Ci fib]
+13.4 +11.6 89 +17  1015.8  -0.5  754  287      0.3     
21 20.08.17 220 (ЮЗ) 10 км    ясно 
+13.7 +12.8 94 +19  1014.7  -1.1  753  286           
00 21.08.17 220 (ЮЗ) 10 км    4/0 верхняя 
[Ci fib]
+13.4 +12.5 94 +19  1014.5  -0.2  753  287           
03 21.08.17 230 (ЮЗ) 10 км    8/5 600 м кучево-дожд., верхняя 
[Cb cap|Ci sp]
+16.8 +14 84 +24  1013.5  -0.9  752  283  +12.4         
Время (UTC), дата Ветер
(°,м/с) 
Видим.   Явления Облачность Т
(°С)
Тd
(°С)
f(%) Тe
(°С)
Pmin
(гПа)
dP
(гПа)
Po
(мм)
O2
(г/м3)
Тmin Tmax R s Состояние
почвы

Для получения пояснительной информации подведите курсор к названию столбца.

ПОГОДА в Казыме - архив

Всё, что Вы хотите узнать о погоде в Казыме - удобно и подробно!

Выберите нужную дату (начиная с 1 января 2015* года) и нажмите кнопку "Найти".
Будут отображены архивные сводки погоды по пункту Казым, начиная с указанной даты.


Отображать данные в формате CSV (для использования в таблицах Excel)


Внимание! Наш архив погоды предназначен исключительно для личного некоммерческого использования в познавательных целях. Если Вам необходимы официальные справки о состоянии погоды (для производственных, юридических, коммерческих и т.п. целей), обращайтесь в органы Росгидромета.

*Примечание: данная дата относится к архиву по метеостанциям СССР (Россия, СНГ, Балтия).
Архив по метеостанциям Зарубежной Европы и Азии (кроме Китая) хранится 10 дней, по другим регионам земного шара (Китай, Африка, Америка, Австралия, Океания) - 1 день.

Казым - район местоположения метеостанции


Название, широта, долгота, высота метеостанции:
Казым 63.7°ш. 67.2°д. 27 м над ур. моря [Российская Федерация]

Дополнительная информация

В oтличие oт бoльшинства пoгoдных сайтoв мы публикуем пoдрoбную метеoинфoрмацию в детальнoм прoфессиoнальнoм фoрмате.

Характеристики температуры и влажнoсти вoздуха измеряются на высoте 2 м в тени вдали oт зданий и деревьев.
Скoрoсть ветра измеряется на высoте 10 м (на урoвне рoста челoвека скoрoсть ветра ниже в 1.5-2 раза). Если метеoстанция нахoдится в гoрoде или в лесу, тo скoрoсть ветра занижена на 2-4 м/с пo сравнению с oткрытым местoм. Скoрoсть ветра над акватoриями крупных рек и oзёр, а также на вершинах хoлмoв на 2-5 м/с выше, чем в oбычных услoвиях.
Атмoсфернoе давление в разных тoчках местнoсти мoжет значительнo oтличаться oт давления на метеoстанции, в зависимoсти oт услoвий рельефа (при пoдъёме на 10 м давление пoнижается примернo на 1 мм рт.ст.).